Location: Central Falls
(41.8900°N, 71.3929°W)
Time: 11:11:09
(UTC+00:00)

A-11 Canister half - Pass Details

Date: 15 December 2023
Orbit: 1512 x 1687 km, 47.2° (Epoch: 20 February)

Event Time Altitude Azimuth Distance (km) Brightness Sun altitude
Rises 23:54:27 0° 187° (S) 4,640 11.7 -28.7°
Reaches altitude 10° 23:58:21 10° 172° (S) 3,672 11.0 -29.5°
Enters shadow 00:01:50 19° 152° (SSE) 3,064 10.3 -30.1°
Maximum altitude 00:04:52 22° 127° (SE) 2,884 - -30.7°
Drops below altitude 10° 00:11:30 10° 81° (E) 3,755 - -31.9°
Sets 00:15:30 0° 68° (ENE) 4,771 - -32.6°
